Flag for U.S.A. Weather past 2 weeks in Port Angeles, Washington, U.S.A.

Now
48 °F

Sunny.


Feels Like: 45 °F
Forecast: 38 / 50 °F
Wind: 7 mph from Northeast

Location: William R. Fairchild International Airport

Current Time: Feb 28, 2015 at 10:23:14 AM

Latest Report: Feb 28, 2015 at 9:53 AM


Visibility: 10 mi

Pressure: 30.25 "Hg

Humidity: 50%

Dew point: 30 °F

Location of Port AngelesLocation

Historic Weather in Port Angeles — Graph

°F

Port Angeles temperature yesterday

Maximum temperature yesterday: 47 °F (at 12:02 AM)
Minimum temperature yesterday: 42 °F (at 11:53 PM)
Average temperature yesterday: 46 °F

Past Weeks' High & Low Weather Summary

 TemperatureHumidityPressure
High56 °F (Feb 13, 6:53 PM)100% (Feb 15, 1:53 AM)30.51 "Hg (Feb 15, 1:53 AM)
Low30 °F (Feb 23, 1:53 AM)40% (Feb 21, 2:53 PM)29.73 "Hg (Feb 27, 3:53 AM)
Average45 °F80%30.27 "Hg
* Reported Feb 13 8:53 AM — Feb 28 8:53 AM, Port Angeles, Weather by CustomWeather, © 2015

Note: Actual official high and low records may vary slightly from our data, if they occured in-between our weather recording intervals... More about our weather records

Advertising

Port Angeles weather history for previous 24 hours

 ConditionsComfort  
Time TempWeatherWind HumidityBarometerVisibility
8:53 AM
Sat, Feb 28
43 °FSunny.5 mph62%30.23 "Hg10 mi
7:53 AM36 °FSunny.No wind79%30.20 "Hg10 mi
6:53 AM38 °FClear.7 mph68%30.19 "Hg10 mi
5:53 AM40 °FClear.9 mph55%30.17 "Hg10 mi
4:53 AM37 °FClear.8 mph70%30.16 "Hg10 mi
3:53 AM41 °FClear.3 mph58%30.14 "Hg10 mi
2:53 AM43 °FPassing clouds.9 mph53%30.12 "Hg10 mi
1:53 AM40 °FClear.6 mph73%30.11 "Hg10 mi
12:53 AM45 °FPassing clouds.5 mph56%30.09 "Hg10 mi
11:53 PM
Fri, Feb 27
42 °FPassing clouds.8 mph71%30.06 "Hg10 mi
10:53 PM46 °FClear.3 mph56%30.02 "Hg10 mi
9:53 PM43 °FOvercast.No wind79%29.99 "Hg10 mi
8:53 PM44 °FOvercast.7 mph85%29.96 "Hg10 mi
7:53 PM44 °FOvercast.No wind89%29.92 "Hg10 mi
6:53 PM45 °FOvercast.No wind90%29.90 "Hg9 mi
5:53 PM46 °FLight rain. Overcast.6 mph86%29.88 "Hg10 mi
4:53 PM46 °FMostly cloudy.5 mph89%29.86 "Hg10 mi
3:53 PM46 °FLight rain. Overcast.3 mph89%29.85 "Hg10 mi
3:01 PM45 °FLight rain. Fog.3 mph93%29.84 "Hg2 mi
1:53 PM47 °FMostly cloudy.8 mph86%29.82 "Hg10 mi
1:03 PM45 °FLight rain. Mostly cloudy.8 mph93%29.81 "Hg7 mi
11:53 AM46 °FLight rain. More clouds than sun.8 mph89%29.81 "Hg10 mi
10:53 AM46 °FLight rain. Mostly cloudy.7 mph89%29.81 "Hg9 mi
10:01 AM44 °FLight rain. Fog.12 mph89%29.80 "Hg4 mi
Weather by CustomWeather, © 2015

See weather overviewHow to use our weather pages